This is the latest recevied weather packets stored in our database for station/object HK6REC-22. If no packets are shown the sender has not sent any weather packets the latest 10 day(s).
| Time | Temp. | Humidity | Pressure | Rain* | Wind** | Luminosity | Snow |
|---|---|---|---|---|---|---|---|
| 1778146567 | 16.67° C | 88% | 1014 hPa | 0 mm | - | - | - |
| 1778144766 | 17.22° C | 81% | 1015 hPa | 0 mm | - | - | - |
| 1778142965 | 17.22° C | 88% | 1014 hPa | 0 mm | - | - | - |
| 1778141164 | 17.22° C | 83% | 1015 hPa | 0 mm | - | - | - |
| 1778139363 | 17.22° C | 88% | 1014 hPa | 0 mm | - | - | - |
| 1778137562 | 17.22° C | 83% | 1015 hPa | 0 mm | - | - | - |
| 1778135761 | 17.22° C | 88% | 1014 hPa | 0 mm | - | - | - |
| 1778133960 | 17.22° C | 89% | 1015 hPa | 0 mm | - | - | - |
| 1778132159 | 17.22° C | 88% | 1015 hPa | 0 mm | - | - | - |
| 1778130358 | 17.22° C | 82% | 1016 hPa | 0 mm | - | - | - |
| 1778128557 | 17.22° C | 88% | 1016 hPa | 0 mm | - | - | - |
| 1778126756 | 17.78° C | 81% | 1016 hPa | 0 mm | - | - | - |
| 1778124955 | 17.78° C | 87% | 1015 hPa | 0 mm | - | - | - |
| 1778123154 | 18.33° C | 82% | 1016 hPa | 0 mm | - | - | - |
| 1778121353 | 18.33° C | 87% | 1015 hPa | 0 mm | - | - | - |
| 1778119551 | 18.89° C | 81% | 1015 hPa | 0 mm | - | - | - |
| 1778117750 | 18.89° C | 87% | 1014 hPa | 0 mm | - | - | - |
| 1778115949 | 19.44° C | 80% | 1014 hPa | 0 mm | - | - | - |
| 1778114148 | 20° C | 85% | 1013 hPa | 0 mm | - | - | - |
| 1778112347 | 21.67° C | 79% | 1013 hPa | 0 mm | - | - | - |
| 1778110546 | 23.33° C | 85% | 1012 hPa | 0 mm | - | - | - |
| 1778108745 | 23.89° C | 77% | 1011 hPa | 0 mm | - | - | - |
| 1778106944 | 23.89° C | 82% | 1010 hPa | 0 mm | - | - | - |
| 1778105143 | 24.44° C | 76% | 1010 hPa | 0 mm | - | - | - |
| 1778103342 | 24.44° C | 79% | 1009 hPa | 0 mm | - | - | - |
* Rain latest hour (hover to see other rain measurements)
** Current wind speed in m/s (hover to see current wind gust speed)